Regional Weather Roundup
Issued by NWS

Home | Current Version | Previous Version | Graphics & Text | Print | Product List | Glossary On
Versions: 1 2 3 4 5 6 7 8 9 10 11 12 13 14 15 16 17 18 19 20 21 22 23 24 25 26 27 28 29 30 31 32 33 34 35 36 37 38 39 40 41 42 43 44 45 46 47 48 49 50
681
ASUS43 KOAX 240410
RWRNE

WEATHER ROUNDUP FOR NEBRASKA
NATIONAL WEATHER SERVICE OMAHA NE
1100 PM CDT MON MAY 23 2016

NOTES: SATELLITE DATA IS BEING USED TO AUGMENT CLOUD COVER ABOVE
       12000 FEET.
       "FAIR" INDICATES FEW OR NO CLOUDS BELOW 12,000 FEET WITH NO
       SIGNIFICANT WEATHER AND/OR OBSTRUCTIONS TO VISIBILITY.

  * THESE STATIONS DO NOT REPORT WEATHER SUCH AS RAIN...SNOW OR FOG.

NEZ001>004-019>022-054>056-240500-
NEBRASKA PANHANDLE

CITY           SKY/WX    TMP DP  RH WIND       PRES   REMARKS
SCOTTSBLUFF    CLEAR     46  43  89 N7        29.89R
ALLIANCE       CLEAR     44  42  93 CALM      29.87R
CHADRON        PTCLDY    54  41  61 SW13      29.85R
KIMBALL        CLEAR     44  39  82 CALM      29.94R
SIDNEY         MOCLDY    47  42  83 S3        29.92R
$$

NEZ057>060-069>072-079>082-240500-
SOUTHWEST NEBRASKA

CITY           SKY/WX    TMP DP  RH WIND       PRES   REMARKS
NORTH PLATTE   CLEAR     55  45  68 NW9       29.85R
IMPERIAL       CLEAR     56  44  64 NW14      29.89R
LEXINGTON      CLEAR     62  56  78 CALM      29.83R
MCCOOK         PTCLDY    63  49  60 N3        29.82R
OGALLALA       DRIZZLE   56  43  62 E9        29.88R
$$

NEZ005>010-023>029-035>040-094-240500-
NORTH CENTRAL NEBRASKA

CITY           SKY/WX    TMP DP  RH WIND       PRES   REMARKS
VALENTINE      MOCLDY    66  37  34 W12       29.80R
AINSWORTH      PTCLDY    64  42  43 W6        29.81R
BROKEN BOW     CLEAR     58  47  66 CALM      29.82R
O`NEILL        CLEAR     64  56  76 S6        29.79R
ORD            CLEAR     63  59  87 S5        29.79R
THEDFORD       CLEAR     59  45  60 NW6       29.85S
$$

NEZ041-046>049-061>064-073>077-083>087-240500-
SOUTH CENTRAL NEBRASKA

CITY           SKY/WX    TMP DP  RH WIND       PRES   REMARKS
GRAND ISLAND   MOCLDY    60  59  96 S6        29.81R
AURORA         CLOUDY    60  58  92 SW6       29.80R
HASTINGS       CLOUDY    64  62  93 SE3       29.82R
HEBRON         MOCLDY    68  60  73 S13G22    29.81R
HOLDREGE       CLEAR     65  57  77 CALM      29.82R
KEARNEY *      PTCLDY    63  61  94 E7        29.83R
YORK           LGT RAIN  59  59 100 SE5       29.80F
$$

NEZ011>018-030>034-042>045-240500-
NORTHEAST NEBRASKA

CITY           SKY/WX    TMP DP  RH WIND       PRES   REMARKS
NORFOLK        CLOUDY    64  56  75 SE7       29.80R
ALBION         CLOUDY    62  58  87 SE6       29.81R
BLAIR          CLOUDY    67  63  85 SE7       29.82R
FREMONT        CLOUDY    66  63  89 CALM      29.84R
TEKAMAH        LGT RAIN  65  63  93 E6        29.83R
WAYNE          CLOUDY    63  58  84 S7        29.79R
$$

NEZ050>053-065>068-078-088>093-240500-
SOUTHEAST NEBRASKA

CITY           SKY/WX    TMP DP  RH WIND       PRES   REMARKS
LINCOLN        CLOUDY    72  61  68 SE15      29.81R
OMAHA EPPLEY   CLOUDY    68  62  81 S8        29.83R
BEATRICE       CLOUDY    68  61  77 S12       29.82R
FALLS CITY     CLOUDY    68  62  81 S7        29.86R
NEBRASKA CITY  CLOUDY    67  63  85 S12       29.85R
PLATTSMOUTH    CLOUDY    69  64  84 SE10G17   29.84R
$$

NEZ044-045-051>053-067-240500-
OMAHA AREA

CITY           SKY/WX    TMP DP  RH WIND       PRES   REMARKS
OMAHA EPPLEY   CLOUDY    68  62  81 S8        29.83R
BLAIR          CLOUDY    67  63  85 SE7       29.82R
FREMONT        CLOUDY    66  63  89 CALM      29.84R
MILLARD        CLOUDY    67  63  85 SE5       29.83R
OFFUTT AFB     CLOUDY    68  64  87 SE8       29.82R
PLATTSMOUTH    CLOUDY    69  64  84 SE10G17   29.84R
WAHOO          MOCLDY    66  63  90 SE9       29.81R
$$




USA.gov is the U.S. government's official web portal to all federal, state and local government web resources and services.